Location: *
(42.3377°N, 71.0868°W)
Time: 05:02:44
(UTC+00:00)

Meteor 1-16 Rocket - Pass Details

Date: 09 April 2020
Orbit: 790 x 907 km, 81.2° (Epoch: 30 May)

Event Time Altitude Azimuth Distance (km) Brightness Sun altitude
Rises 23:35:00 0° 175° (S) 3,302 7.1 -3.6°
Reaches altitude 10° 23:37:23 10° 171° (S) 2,389 6.3 -4.0°
Maximum altitude 23:42:39 56° 95° (E) 979 4.3 -4.9°
Drops below altitude 10° 23:48:06 10° 18° (NNE) 2,477 6.6 -5.9°
Sets 23:50:36 0° 15° (NNE) 3,435 7.4 -6.3°
